Flag for Germany Weather past 2 weeks in Emmendingen, Baden-Württemberg, Germany

Now
34 °F

Clear.


Feels Like: 34 °F
Forecast: 26 / 58 °F
Wind: 2 mph from Southeast

Location: Lahr

Current Time: Mar 7, 2015 at 1:19:09 AM

Latest Report: Mar 7, 2015 at 1:00 AM


Visibility: 14 mi

Pressure: 30.60 "Hg

Humidity: 85%

Dew point: 30 °F

Location of EmmendingenLocation

Historic Weather in Emmendingen — Graph

°F

Emmendingen temperature yesterday

Maximum temperature yesterday: 51 °F (at 4:00 PM)
Minimum temperature yesterday: 28 °F (at 7:00 AM)
Average temperature yesterday: 38 °F

Past Weeks' High & Low Weather Summary

 TemperatureHumidityPressure
High57 °F (Feb 20, 4:00 PM)100% (Feb 20, 3:00 AM)30.71 "Hg (Feb 20, 3:00 AM)
Low25 °F (Feb 20, 4:00 AM)26% (Feb 20, 9:00 PM)29.55 "Hg (Feb 23, 5:00 PM)
Average42 °F75%30.06 "Hg
* Reported Midnight between Feb 19 and Feb 20 — Midnight between Mar 6 and Mar 7, Emmendingen, Weather by CustomWeather, © 2015

Note: Actual official high and low records may vary slightly from our data, if they occured in-between our weather recording intervals... More about our weather records

Advertising

Emmendingen weather history for previous 24 hours

 ConditionsComfort  
Time TempWeatherWind HumidityBarometerVisibility
12:00 AM
Sat, Mar 7
33 °FClear.2 mph84%30.59 "Hg15 mi
11:00 PM
Fri, Mar 6
33 °FClear.1 mph86%30.59 "Hg12 mi
10:00 PM35 °FClear.1 mph84%30.60 "Hg12 mi
9:00 PM38 °FPassing clouds.1 mph79%30.61 "Hg34 mi
8:00 PM40 °FPassing clouds.1 mph77%30.61 "Hg34 mi
7:00 PM43 °FPassing clouds.1 mph68%30.58 "Hg34 mi
6:00 PM48 °FScattered clouds.2 mph49%30.58 "Hg34 mi
5:00 PM50 °FScattered clouds.2 mph42%30.58 "Hg34 mi
4:00 PM51 °FPassing clouds.1 mph43%30.58 "Hg34 mi
3:00 PM49 °FPassing clouds.2 mph42%30.61 "Hg34 mi
2:00 PM49 °FPassing clouds.2 mph44%30.64 "Hg34 mi
1:00 PM47 °FPassing clouds.2 mph46%30.65 "Hg34 mi
12:00 PM45 °FPassing clouds.1 mph55%30.68 "Hg34 mi
11:00 AM42 °FPassing clouds.1 mph63%30.68 "Hg34 mi
10:00 AM38 °FPassing clouds.1 mph74%30.71 "Hg34 mi
9:00 AM37 °FPassing clouds.1 mph74%30.71 "Hg34 mi
8:00 AM28 °FPassing clouds.1 mph92%30.71 "Hg34 mi
7:00 AM28 °FClear.1 mph98%30.70 "Hg22 mi
6:00 AM28 °FFog.1 mph97%30.69 "Hg17 mi
5:00 AM28 °FClear.1 mph92%30.68 "Hg9 mi
4:00 AM29 °FClear.1 mph96%30.68 "Hg7 mi
3:00 AM29 °FClear.1 mph94%30.68 "Hg9 mi
2:00 AM30 °FClear.1 mph92%30.68 "Hg11 mi
1:00 AM30 °FClear.1 mph89%30.68 "Hg12 mi
Weather by CustomWeather, © 2015

See weather overviewHow to use our weather pages